This is the latest recevied weather packets stored in our database for station/object OE5WWO. If no packets are shown the sender has not sent any weather packets the latest 10 day(s).
| Time | Temp. | Humidity | Pressure | Rain* | Wind** | Luminosity | Snow |
|---|---|---|---|---|---|---|---|
| 1777830039 | 25.56° C | 33% | 1010.6 hPa | 0 mm | - | - | - |
| 1777828239 | 26.11° C | 32% | 1010.5 hPa | 0 mm | - | - | - |
| 1777827651 | 26.11° C | 31% | 1010.5 hPa | 0 mm | - | - | - |
| 1777827341 | 26.11° C | 31% | 1010.4 hPa | 0 mm | - | - | - |
| 1777826751 | 26.67° C | 31% | 1010.5 hPa | 0 mm | - | - | - |
| 1777826440 | 26.67° C | 31% | 1010.6 hPa | 0 mm | - | - | - |
| 1777823155 | 27.78° C | 26% | 1010.8 hPa | 0 mm | - | - | - |
| 1777822255 | 27.78° C | 23% | 1011 hPa | 0 mm | - | - | - |
| 1777821937 | 27.78° C | 24% | 1010.9 hPa | 0 mm | - | - | - |
| 1777820139 | 28.33° C | 23% | 1011.3 hPa | 0 mm | - | - | - |
| 1777819560 | 28.89° C | 24% | 1011.4 hPa | 0 mm | - | - | - |
| 1777818657 | 28.89° C | 24% | 1011.6 hPa | 0 mm | - | - | - |
| 1777817750 | 28.89° C | 23% | 1011.9 hPa | 0 mm | - | - | - |
| 1777817137 | 29.44° C | 23% | 1012 hPa | 0 mm | - | - | - |
| 1777816852 | 28.89° C | 25% | 1012.2 hPa | 0 mm | - | - | - |
| 1777810237 | 26.67° C | 32% | 1014.1 hPa | 0 mm | - | - | - |
| 1777809647 | 26.11° C | 33% | 1014.2 hPa | 0 mm | - | - | - |
| 1777808438 | 25° C | 33% | 1014.4 hPa | 0 mm | - | - | - |
| 1777807862 | 25.56° C | 36% | 1014.6 hPa | 0 mm | - | - | - |
| 1777806637 | 24.44° C | 38% | 1015 hPa | 0 mm | - | - | - |
| 1777805175 | 23.89° C | 44% | 1015.3 hPa | 0 mm | - | - | - |
| 1777804246 | 23.33° C | 41% | 1015.6 hPa | 0 mm | - | - | - |
| 1777801837 | 21.67° C | 42% | 1016.2 hPa | 0 mm | - | - | - |
| 1777800937 | 21.11° C | 44% | 1016.4 hPa | 0 mm | - | - | - |
| 1777800647 | 21.11° C | 42% | 1016.4 hPa | 0 mm | - | - | - |
* Rain latest hour (hover to see other rain measurements)
** Current wind speed in m/s (hover to see current wind gust speed)